Tracking 18980 objects as of 22-Feb-2018
HD Live streaming from Space Station
objects crossing your sky now

INTELSAT 4A-F4

Track INTELSAT 4A-F4 now!
INTELSAT 4A-F4 is classified as:


NORAD ID: 10024
Int'l Code: 1977-041A
Perigee: 35,985.4 km
Apogee: 36,067.3 km
Inclination: 14.2 °
Period: 1,448.0 minutes
Semi major axis: 42397 km
RCS: 2.3464 m2 (large)
Launch date: May 26, 1977
Source: International Telecommunications Satellite Organization (ITSO)
Launch site: AIR FORCE EASTERN TEST RANGE (AFETR)
aabbcc
Your satellite tracking list
Your tracking list is empty




NASA's NSSDC Master Catalog

Two Line Element Set (TLE):
1 10024U 77041A   18052.56643117 -.00000234 +00000-0 +00000-0 0  9995
2 10024 014.1613 338.3432 0009655 207.7525 333.6565 00.99447692016776
Source of the keplerian elements: AFSPC